STARLINK-11633, 63317

Orbit data source: Space-Track

STARLINK-11633, 63317 is a payload satellite owned by SpaceX/Seattle (US) in LEO that was launched on Tue, 18 Mar 2025 UTC via an FALCON 9 launch vehicle from the Air Force Eastern Test Range (AFETR). Payload-class satellites include a variety of spacecraft equipped with specific instruments for various scientific and technological missions. These include communications satellites like Starlink; space stations such as the ISS; scientific satellites like the Hubble; Earth observation satellites from companies like Planet Labs, Umbra, and HawkEye 360; GPS; miniature CubeSats for education and research; and military/defense satellites.

Loading next visibility...
Identifier
63317, 2025-057L
Orbit
LEO
Last TLE update
1 day ago
Origin
Manufacturer
SpaceX/Seattle
Mission
Operational spacecraft
Bus & Motor
STARLINK V2M, Unknown motor
Mass
730 kg wet, ~700 kg dry
Launch date (UTC)
2025-03-18 (1 month ago)
Launch vehicle
FALCON 9
Launch site
Air Force Eastern Test Range (AFETR)
Object type
Payload
Rocket body
Debris
Shape & HBR
Unknown
Radar Cross Section
Large (>1 m²)

Expand to show TLE details & history

TLE from 1 day ago
0 STARLINK-11633
1 63317U 25057L   25118.96278954 -.00002293  00000-0 -14390-4 0  9995
2 63317  43.0009   1.2142 0001925 286.9284  73.1373 15.70818181  7667
Epoch: 2025-04-28T23:06Z
Definitive object data (Epoch: 2025-04-28T23:06:25.016Z)
Latitude
0.00002°
Longitude
157.44071°
Altitude
355.953 km
Speed
7.698 km/s
True Right ascension
00h 04m 51s
True Declination
0° 00' 00"
Sunlit
Object was in daylight at TLE epoch
Visualization TLE readout
Latitude
35.4962°
Longitude
-161.93281°
Altitude
358.768 km
Speed
7.699 km/s
Apparent Right ascension
04h 18m 20s
Apparent Declination
-1° 05' 10"
Sunlit
Object is in daylight
Visualization observer readout
Local Sidereal Time
18:01:03
Azimuth
37.549° NE
Elevation
-44.69°
Doppler factor
1
Orbital elements
Apogee altitude
359.836 km
Perigee altitude
357.242 km
Semi-major axis
6,736.676 km
Eccentricity
0.0001925
Inclination
43.0009°
RAAN
1.2142°
Arg. of periapsis
286.9284°
True anomaly
73.15841°
Mean anomaly
73.1373°
Eccentric anomaly
73.14786°
Mean motion
3.92532 °/min
BSTAR
-0.00001439
Orbital period
91.71 mins
Loading maneuver chart data...
Loading SW <> Apogee altitude chart data...
Loading historical data...
Loading historical data...
Loading historical data...
Loading historical data...
Loading historical data...
Loading historical data...
Loading historical data...

STARLINK-11633 Visibility forecast

Observer location: undefined°, undefined°

Span
Click to sort rows by Start time (UTC) header in descending order
Start Az.
Max El. time (UTC)
Max El. Az.
Max El.
End time (UTC)
End Az.
4 mins2025-04-30 19:37:03.055Z235.003° WSW2025-04-30 19:38:03.055Z213.003° SW38.748°2025-04-30 19:41:03.055Z76.068° E
4 mins2025-04-30 21:13:03.055Z289.529° WNW2025-04-30 21:15:03.055Z16.964° NNE34.287°2025-04-30 21:17:03.055Z66.836° ENE
|